Hammond, LA

2:48 AM CDT on May 29, 2017 (GMT -0500)
Hammond Municipal

Weather History for KHDC - November, 2013

Change the Weather History Date:

Friday, November 15, 2013

  Actual Average (KMSY) Record (KMSY)
Temperature  
Mean Temperature 63 °F -  
Max Temperature 69 °F 70 °F 84 °F (1955)
Min Temperature 57 °F 50 °F 29 °F (1969)
Degree Days  
Heating Degree Days 2    
Growing Degree Days 13 (Base 50)    
Moisture  
Dew Point 57 °F    
Average Humidity 80    
Maximum Humidity 88    
Minimum Humidity 67    
Precipitation  
Precipitation 0.15 in - - ()
Sea Level Pressure  
Sea Level Pressure 30.07 in    
Wind  
Wind Speed 3 mph (NE)    
Max Wind Speed 8 mph    
Max Gust Speed -    
Visibility 10 miles    
Events Rain    
Averages and records for this station are not official NWS values.
T = Trace of Precipitation, MM = Missing Value Source: NWS Daily Summary

Daily Weather History Graph

Daily Weather History Graph

Search for Another Location

Airport or City:

Trip Planner

Search our weather history database for the weather conditions in past years. The results will help you decide how hot, cold, wet, or windy it might be!

Date:

Astronomy

Nov. 15, 2013 Rise Set
Actual Time 6:27 AM CST 5:04 PM CST
Civil Twilight 6:02 AM CST 5:29 PM CST
Nautical Twilight 5:33 AM CST 5:58 PM CST
Astronomical Twilight 5:04 AM CST 6:27 PM CST
Moon 3:55 PM CST (11/15) 4:31 AM CST (11/15)
Length of Visible Light 11h 27m
Length of Day
10h 36m
Waxing Gibbous, 96% of the Moon is Illuminated
Nov 15
Waxing Gibbous
Nov 17
Full
Nov 25
Last Quarter
Dec 2
New
Dec 9
First Quarter

Hourly Weather History & Observations

Time (CST) Temp. Dew Point Humidity Pressure Visibility Wind Dir Wind Speed Gust Speed Precip Events Conditions
12:35 AM 57.2 °F 48.2 °F 72% 30.14 in 10.0 mi Calm Calm - N/A   Overcast
12:55 AM 57.2 °F 48.2 °F 72% 30.13 in 10.0 mi NE 3.5 mph - N/A   Overcast
1:15 AM 57.2 °F 48.2 °F 72% 30.13 in 10.0 mi NNE 3.5 mph - N/A   Overcast
1:35 AM 59.0 °F 48.2 °F 67% 30.13 in 10.0 mi ENE 3.5 mph - N/A   Overcast
1:55 AM 57.2 °F 48.2 °F 72% 30.12 in 10.0 mi ENE 3.5 mph - N/A   Mostly Cloudy
2:15 AM 57.2 °F 48.2 °F 72% 30.11 in 10.0 mi East 4.6 mph - N/A   Mostly Cloudy
2:35 AM 59.0 °F 48.2 °F 67% 30.10 in 10.0 mi ENE 3.5 mph - N/A   Mostly Cloudy
2:55 AM 57.2 °F 50.0 °F 77% 30.10 in 10.0 mi East 4.6 mph - N/A Rain Light Rain
3:15 AM 57.2 °F 50.0 °F 77% 30.10 in 10.0 mi Calm Calm - N/A   Light Drizzle
3:35 AM 57.2 °F 50.0 °F 77% 30.09 in 10.0 mi Calm Calm - N/A   Overcast
3:55 AM 57.2 °F 50.0 °F 77% 30.08 in 10.0 mi East 5.8 mph - N/A   Overcast
4:15 AM 57.2 °F 50.0 °F 77% 30.08 in 10.0 mi Calm Calm - N/A   Overcast
4:35 AM 57.2 °F 50.0 °F 77% 30.08 in 10.0 mi Calm Calm - N/A   Overcast
4:55 AM 57.2 °F 50.0 °F 77% 30.09 in 10.0 mi Calm Calm - N/A   Mostly Cloudy
5:15 AM 57.2 °F 50.0 °F 77% 30.08 in 10.0 mi Calm Calm - N/A   Overcast
5:35 AM 57.2 °F 51.8 °F 82% 30.09 in 10.0 mi Calm Calm - N/A   Overcast
5:55 AM 57.2 °F 51.8 °F 82% 30.09 in 10.0 mi Calm Calm - N/A   Mostly Cloudy
6:15 AM 57.2 °F 51.8 °F 82% 30.10 in 10.0 mi Calm Calm - N/A   Mostly Cloudy
6:35 AM 57.2 °F 51.8 °F 82% 30.09 in 10.0 mi East 3.5 mph - N/A Rain Rain
6:55 AM 57.2 °F 51.8 °F 82% 30.09 in 10.0 mi Calm Calm - N/A   Overcast
7:15 AM 59.0 °F 53.6 °F 82% 30.10 in 10.0 mi Calm Calm - N/A Rain Rain
7:35 AM 59.0 °F 53.6 °F 82% 30.10 in 10.0 mi Calm Calm - N/A   Light Drizzle
7:55 AM 59.0 °F 53.6 °F 82% 30.10 in 10.0 mi Calm Calm - N/A   Overcast
8:15 AM 59.0 °F 55.4 °F 88% 30.09 in 2.5 mi East 6.9 mph - 0.06 in Rain Rain
8:35 AM 59.0 °F 55.4 °F 88% 30.10 in 4.0 mi Calm Calm - 0.15 in Rain Light Rain
8:55 AM 60.8 °F 57.2 °F 88% 30.11 in 10.0 mi Calm Calm - 0.15 in   Overcast
9:15 AM 60.8 °F 57.2 °F 88% 30.09 in 10.0 mi East 6.9 mph - N/A   Mostly Cloudy
9:35 AM 62.6 °F 59.0 °F 88% 30.11 in 10.0 mi Calm Calm - N/A   Scattered Clouds
9:55 AM 64.4 °F 59.0 °F 83% 30.12 in 10.0 mi Calm Calm - N/A   Mostly Cloudy
10:15 AM 66.2 °F 60.8 °F 83% 30.11 in 10.0 mi Calm Calm - N/A   Overcast
10:35 AM 66.2 °F 60.8 °F 83% 30.10 in 10.0 mi Calm Calm - N/A   Overcast
10:55 AM 69.8 °F 60.8 °F 73% 30.10 in 10.0 mi North 3.5 mph - N/A   Overcast
11:15 AM 68.0 °F 60.8 °F 78% 30.09 in 10.0 mi North 5.8 mph - N/A   Overcast
11:35 AM 68.0 °F 60.8 °F 78% 30.08 in 10.0 mi North 4.6 mph - N/A   Overcast
11:55 AM 69.8 °F 60.8 °F 73% 30.07 in 10.0 mi NNE 4.6 mph - N/A   Overcast
12:15 PM 69.8 °F 62.6 °F 78% 30.06 in 10.0 mi North 3.5 mph - N/A   Overcast
12:35 PM 69.8 °F 62.6 °F 78% 30.05 in 10.0 mi NNE 3.5 mph - N/A   Overcast
12:55 PM 69.8 °F 62.6 °F 78% 30.04 in 10.0 mi NNE 4.6 mph - N/A   Overcast
1:35 PM 69.8 °F 62.6 °F 78% 30.02 in 10.0 mi NNE 5.8 mph - N/A   Overcast
1:55 PM 69.8 °F 62.6 °F 78% 30.02 in 7.0 mi ENE 6.9 mph - N/A   Overcast
2:15 PM 69.8 °F 62.6 °F 78% 30.01 in 10.0 mi NE 6.9 mph - N/A   Overcast
2:35 PM 68.0 °F 60.8 °F 78% 30.01 in 10.0 mi ENE 6.9 mph - N/A   Overcast
2:55 PM 68.0 °F 60.8 °F 78% 30.01 in 10.0 mi ENE 8.1 mph - N/A   Overcast
3:15 PM 68.0 °F 60.8 °F 78% 30.01 in 10.0 mi NE 4.6 mph - N/A   Overcast
3:35 PM 66.2 °F 60.8 °F 83% 30.01 in 10.0 mi NNE 4.6 mph - N/A   Overcast
3:55 PM 66.2 °F 60.8 °F 83% 30.01 in 7.0 mi ENE 4.6 mph - N/A   Overcast
4:15 PM 66.2 °F 60.8 °F 83% 30.01 in 7.0 mi NNE 4.6 mph - N/A   Overcast
4:35 PM 64.4 °F 59.0 °F 83% 30.02 in 7.0 mi NE 3.5 mph - N/A   Overcast
4:55 PM 64.4 °F 59.0 °F 83% 30.02 in 7.0 mi Calm Calm - N/A   Overcast
5:15 PM 64.4 °F 59.0 °F 83% 30.02 in 10.0 mi Calm Calm - N/A   Overcast
5:35 PM 64.4 °F 59.0 °F 83% 30.02 in 10.0 mi NE 3.5 mph - N/A   Overcast
5:55 PM 64.4 °F 59.0 °F 83% 30.03 in 10.0 mi ENE 4.6 mph - N/A   Overcast
6:15 PM 64.4 °F 59.0 °F 83% 30.03 in 10.0 mi ENE 5.8 mph - N/A   Overcast
6:35 PM 64.4 °F 59.0 °F 83% 30.04 in 10.0 mi NE 4.6 mph - N/A   Overcast
6:55 PM 64.4 °F 59.0 °F 83% 30.05 in 10.0 mi NE 3.5 mph - N/A   Overcast
7:15 PM 64.4 °F 59.0 °F 83% 30.05 in 10.0 mi Calm Calm - N/A   Overcast
7:35 PM 64.4 °F 59.0 °F 83% 30.05 in 10.0 mi ENE 4.6 mph - N/A   Overcast
7:55 PM 64.4 °F 59.0 °F 83% 30.05 in 10.0 mi NE 5.8 mph - N/A   Overcast
8:15 PM 64.4 °F 59.0 °F 83% 30.05 in 10.0 mi ENE 4.6 mph - N/A   Overcast
8:35 PM 64.4 °F 59.0 °F 83% 30.07 in 10.0 mi Calm Calm - N/A   Overcast
8:55 PM 64.4 °F 59.0 °F 83% 30.07 in 10.0 mi ENE 3.5 mph - N/A   Overcast
9:15 PM 64.4 °F 59.0 °F 83% 30.06 in 10.0 mi ENE 5.8 mph - N/A   Overcast
9:35 PM 64.4 °F 59.0 °F 83% 30.06 in 10.0 mi East 3.5 mph - N/A   Overcast
9:55 PM 64.4 °F 59.0 °F 83% 30.06 in 10.0 mi East 3.5 mph - N/A   Overcast
10:15 PM 64.4 °F 59.0 °F 83% 30.05 in 10.0 mi ENE 3.5 mph - N/A   Overcast
10:35 PM 64.4 °F 59.0 °F 83% 30.05 in 10.0 mi East 3.5 mph - N/A   Overcast
10:55 PM 64.4 °F 59.0 °F 83% 30.05 in 10.0 mi ENE 3.5 mph - N/A   Overcast
11:15 PM 64.4 °F 59.0 °F 83% 30.05 in 10.0 mi East 3.5 mph - N/A Rain Light Rain
11:35 PM 62.6 °F 59.0 °F 88% 30.05 in 10.0 mi Calm Calm - N/A   Overcast
11:55 PM 62.6 °F 59.0 °F 88% 30.05 in 10.0 mi Calm Calm - N/A   Overcast